Simultaneous Nadir Overpasses (SNOs) Predictions

Prediction of SNOs between GOES-15 and TERRA Satellite Orbit:

Table of predicted SNOs for the next 14.0 days since TLE Epoch: 10/10/2015
Index Date Time (GOES-15) GOES-15 Lat,Lon TERRA Lat,Lon Distance(km) Time Diff (sec)
1 10/10/2015 07:22:25 0.32,-134.89 0.65,-133.40 169.19 80
2 10/10/2015 19:43:40 -0.32,-134.94 0.45,-138.56 412.31 80
3 10/12/2015 07:10:15 0.32,-134.83 1.24,-130.45 498.01 80
4 10/12/2015 19:31:32 -0.32,-134.88 -0.19,-135.62 83.56 80
5 10/14/2015 19:22:02 -0.32,-134.81 -0.79,-132.66 244.70 80
6 10/15/2015 07:43:25 0.32,-134.74 -0.35,-137.85 354.04 80
7 10/17/2015 07:31:15 0.31,-134.66 0.25,-134.90 26.82 80
8 10/19/2015 07:16:25 0.31,-134.58 0.86,-131.94 299.71 80
9 10/19/2015 19:37:41
